Location: Cadenet
(43.7345°N, 5.3750°E)
Time: 18:35:19
(UTC+00:00)

ADEOS Rocket - Pass Details

Date: 18 February 2020
Orbit: 859 x 1306 km, 98.7° (Epoch: 31 March)

Event Time Altitude Azimuth Distance (km) Brightness Sun altitude
Rises 05:30:19 0° 163° (SSE) 3,609 6.3 -12.1°
Reaches altitude 10° 05:32:38 10° 163° (SSE) 2,718 5.6 -11.7°
Maximum altitude 05:38:46 88° 78° (ENE) 1,061 3.2 -10.6°
Drops below altitude 10° 05:45:42 10° 347° (NNW) 3,047 5.4 -9.3°
Sets 05:48:25 0° 347° (NNW) 4,073 6.0 -8.9°
